Weather History for Anaktuvuk Pass, AK

Change the Weather History Date:

Tuesday, August 19, 2014

  Actual Average Record
Temperature  
Mean Temperature 50 °F -  
Max Temperature 60 °F 49 °F 73 °F (2004)
Min Temperature 41 °F 35 °F 26 °F (1997)
Degree Days  
Heating Degree Days 14    
Moisture  
Dew Point 42 °F    
Average Humidity 74    
Maximum Humidity 87    
Minimum Humidity 55    
Precipitation  
Precipitation 0.00 in - - ()
Sea Level Pressure  
Sea Level Pressure 29.91 in    
Wind  
Wind Speed 4 mph (NE)    
Max Wind Speed 14 mph    
Max Gust Speed 18 mph    
Visibility 10 miles    
Events      
Averages and records for this station are not official NWS values.
T = Trace of Precipitation, MM = Missing Value Source: NWS Daily Summary

Daily Weather History Graph

Daily Weather History Graph

Search for Another Location

Airport:

Trip Planner

Search our weather history database for the weather conditions in past years. The results will help you decide how hot, cold, wet, or windy it might be!

Date:

Astronomy

Aug. 19, 2014 Rise Set
Actual Time 5:42 AM AKDT 10:35 PM AKDT
Civil Twilight 4:18 AM AKDT 11:57 PM AKDT
Nautical Twilight Sun does not rise Sun does not rise
Astronomical Twilight Sun does not rise Sun does not rise
Moon No Moon Rise 7:51 PM AKDT
Length of Visible Light 19h 39m
Length of Day
16h 52m
Waning Crescent, 28% of the Moon is Illuminated
Aug 19
Waning Crescent
Aug 25
New
Sep 2
First Quarter
Sep 8
Full
Sep 15
Last Quarter

Hourly Weather History & Observations

Time (AKDT) Temp. Windchill Dew Point Humidity Pressure Visibility Wind Dir Wind Speed Gust Speed Precip Events Conditions
12:16 AM 46.4 °F - 41.0 °F 81% 29.83 in 10.0 mi Calm Calm - N/A   Mostly Cloudy
12:36 AM 46.4 °F 45.2 °F 39.2 °F 76% 29.84 in 10.0 mi North 3.5 mph - N/A   Partly Cloudy
12:56 AM 44.6 °F - 37.4 °F 76% 29.84 in 10.0 mi Calm Calm - N/A   Clear
1:16 AM 44.6 °F - 37.4 °F 76% 29.85 in 10.0 mi Calm Calm - N/A   Partly Cloudy
1:36 AM 42.8 °F - 37.4 °F 81% 29.85 in 10.0 mi Calm Calm - N/A   Clear
1:56 AM 41.0 °F 39.0 °F 35.6 °F 81% 29.86 in 10.0 mi North 3.5 mph - N/A   Clear
2:16 AM 42.8 °F 40.1 °F 37.4 °F 81% 29.86 in 10.0 mi NNW 4.6 mph - N/A   Clear
2:36 AM 42.8 °F 41.1 °F 35.6 °F 76% 29.86 in 10.0 mi ENE 3.5 mph - N/A   Clear
2:56 AM 42.8 °F - 37.4 °F 81% 29.87 in 10.0 mi Calm Calm - N/A   Clear
3:16 AM 41.0 °F - 35.6 °F 81% 29.87 in 10.0 mi Calm Calm - N/A   Mostly Cloudy
3:36 AM 41.0 °F - 35.6 °F 81% 29.87 in 10.0 mi Calm Calm - N/A   Overcast
3:56 AM 42.8 °F - 35.6 °F 76% 29.88 in 10.0 mi Calm Calm - N/A   Overcast
4:16 AM 41.0 °F - 35.6 °F 81% 29.88 in 10.0 mi Calm Calm - N/A   Overcast
4:36 AM 42.8 °F - 37.4 °F 81% 29.88 in 10.0 mi Calm Calm - N/A   Overcast
4:56 AM 42.8 °F - 37.4 °F 81% 29.89 in 10.0 mi Calm Calm - N/A   Overcast
5:16 AM 42.8 °F - 37.4 °F 81% 29.89 in 10.0 mi Calm Calm - N/A   Overcast
5:36 AM 42.8 °F - 39.2 °F 87% 29.89 in 10.0 mi Calm Calm - N/A   Overcast
5:56 AM 44.6 °F - 37.4 °F 76% 29.89 in 10.0 mi Calm Calm - N/A   Overcast
6:16 AM 44.6 °F - 39.2 °F 81% 29.89 in 10.0 mi Calm Calm - N/A   Overcast
6:36 AM 44.6 °F - 39.2 °F 81% 29.89 in 10.0 mi Calm Calm - N/A   Overcast
6:56 AM 44.6 °F - 39.2 °F 81% 29.89 in 10.0 mi Calm Calm - N/A   Overcast
7:16 AM 46.4 °F 44.3 °F 39.2 °F 76% 29.89 in 10.0 mi SSE 4.6 mph - N/A   Overcast
7:36 AM 44.6 °F - 39.2 °F 81% 29.89 in 10.0 mi Calm Calm - N/A   Overcast
7:56 AM 46.4 °F - 39.2 °F 76% 29.90 in 10.0 mi Calm Calm - N/A   Overcast
8:16 AM 46.4 °F 44.3 °F 41.0 °F 81% 29.90 in 10.0 mi NNE 4.6 mph - N/A   Overcast
8:36 AM 46.4 °F 42.4 °F 41.0 °F 81% 29.90 in 10.0 mi NNE 8.1 mph - N/A   Mostly Cloudy
8:56 AM 46.4 °F 42.4 °F 42.8 °F 87% 29.90 in 10.0 mi NNE 8.1 mph - N/A   Overcast
9:16 AM 46.4 °F 43.5 °F 41.0 °F 81% 29.90 in 10.0 mi NNE 5.8 mph - N/A   Mostly Cloudy
9:36 AM 48.2 °F - 42.8 °F 82% 29.90 in 10.0 mi NNE 5.8 mph - N/A   Mostly Cloudy
9:56 AM 50.0 °F - 42.8 °F 76% 29.90 in 10.0 mi North 8.1 mph - N/A   Partly Cloudy
10:16 AM 51.8 °F - 42.8 °F 71% 29.91 in 10.0 mi NNE 4.6 mph - N/A   Scattered Clouds
10:36 AM 51.8 °F - 42.8 °F 71% 29.91 in 10.0 mi North 3.5 mph - N/A   Scattered Clouds
10:56 AM 53.6 °F - 42.8 °F 67% 29.91 in 10.0 mi North 5.8 mph - N/A   Scattered Clouds
11:16 AM 53.6 °F - 42.8 °F 67% 29.92 in 10.0 mi NE 8.1 mph - N/A   Mostly Cloudy
11:36 AM 53.6 °F - 44.6 °F 72% 29.91 in 10.0 mi ENE 9.2 mph - N/A   Overcast
11:56 AM 55.4 °F - 44.6 °F 67% 29.91 in 10.0 mi ENE 9.2 mph - N/A   Overcast
12:16 PM 55.4 °F - 42.8 °F 63% 29.91 in 10.0 mi NE 10.4 mph - N/A   Overcast
12:36 PM 57.2 °F - 44.6 °F 63% 29.91 in 10.0 mi ENE 11.5 mph - N/A   Mostly Cloudy
12:56 PM 57.2 °F - 44.6 °F 63% 29.91 in 10.0 mi NE 11.5 mph - N/A   Mostly Cloudy
1:16 PM 57.2 °F - 44.6 °F 63% 29.92 in 10.0 mi NE 10.4 mph - N/A   Scattered Clouds
1:36 PM 59.0 °F - 44.6 °F 59% 29.91 in 10.0 mi NE 11.5 mph 16.1 mph N/A   Partly Cloudy
1:56 PM 59.0 °F - 44.6 °F 59% 29.92 in 10.0 mi ENE 10.4 mph - N/A   Clear
2:16 PM 60.8 °F - 44.6 °F 55% 29.92 in 10.0 mi NE 10.4 mph - N/A   Partly Cloudy
2:36 PM 59.0 °F - 44.6 °F 59% 29.92 in 10.0 mi NNE 8.1 mph - N/A   Mostly Cloudy
2:56 PM 57.2 °F - 42.8 °F 59% 29.92 in 10.0 mi NW 5.8 mph - N/A   Overcast
3:16 PM 55.4 °F - 42.8 °F 63% 29.93 in 10.0 mi WNW 4.6 mph - N/A   Overcast
3:36 PM 53.6 °F - 44.6 °F 72% 29.93 in 9.0 mi WNW 5.8 mph - N/A   Overcast
3:56 PM 55.4 °F - 44.6 °F 67% 29.94 in 10.0 mi WSW 5.8 mph - N/A   Overcast
4:16 PM 55.4 °F - 44.6 °F 67% 29.94 in 10.0 mi SW 5.8 mph - N/A   Overcast
4:36 PM 53.6 °F - 44.6 °F 72% 29.94 in 10.0 mi SSE 11.5 mph - N/A   Overcast
4:56 PM 53.6 °F - 44.6 °F 72% 29.95 in 10.0 mi NNE 10.4 mph - N/A   Overcast
5:16 PM 53.6 °F - 46.4 °F 77% 29.95 in 10.0 mi NE 11.5 mph 18.4 mph N/A   Overcast
5:36 PM 53.6 °F - 44.6 °F 72% 29.94 in 10.0 mi NE 12.7 mph - N/A   Overcast
5:56 PM 53.6 °F - 44.6 °F 72% 29.95 in 10.0 mi NE 13.8 mph 17.3 mph N/A   Overcast
6:16 PM 53.6 °F - 44.6 °F 72% 29.95 in 10.0 mi NE 11.5 mph - N/A   Partly Cloudy
6:36 PM 55.4 °F - 44.6 °F 67% 29.95 in 10.0 mi NE 12.7 mph - N/A   Partly Cloudy
6:56 PM 53.6 °F - 44.6 °F 72% 29.95 in 10.0 mi NE 10.4 mph - N/A   Mostly Cloudy
7:16 PM 53.6 °F - 44.6 °F 72% 29.95 in 10.0 mi NE 10.4 mph - N/A   Overcast
7:36 PM 53.6 °F - 44.6 °F 72% 29.95 in 10.0 mi Calm Calm - N/A   Overcast
7:56 PM 53.6 °F - 42.8 °F 67% 29.95 in 10.0 mi Calm Calm - N/A   Overcast
8:16 PM 53.6 °F - 42.8 °F 67% 29.95 in 10.0 mi NNE 5.8 mph - N/A   Overcast
8:36 PM 51.8 °F - 42.8 °F 71% 29.95 in 10.0 mi NE 6.9 mph - N/A   Overcast
8:56 PM 51.8 °F - 42.8 °F 71% 29.96 in 10.0 mi ENE 5.8 mph - N/A   Overcast
9:16 PM 51.8 °F - 44.6 °F 76% 29.96 in 10.0 mi NE 6.9 mph - N/A   Overcast
9:36 PM 50.0 °F - 42.8 °F 76% 29.96 in 10.0 mi NE 6.9 mph - N/A   Overcast
9:56 PM 48.2 °F - 42.8 °F 82% 29.97 in 10.0 mi NE 5.8 mph - N/A   Overcast
10:16 PM 50.0 °F - 42.8 °F 76% 29.97 in 10.0 mi ENE 6.9 mph - N/A   Overcast
10:36 PM 50.0 °F - 42.8 °F 76% 29.97 in 10.0 mi ENE 9.2 mph - N/A   Scattered Clouds
10:56 PM 48.2 °F - 42.8 °F 82% 29.98 in 10.0 mi ENE 9.2 mph - N/A   Mostly Cloudy
11:16 PM 48.2 °F - 42.8 °F 82% 29.98 in 10.0 mi ENE 6.9 mph - N/A   Mostly Cloudy
11:36 PM 48.2 °F - 42.8 °F 82% 29.98 in 10.0 mi NE 5.8 mph - N/A   Overcast
11:56 PM 48.2 °F - 42.8 °F 82% 29.98 in 10.0 mi NNE 4.6 mph - N/A   Overcast